Current Conditions
Partly Cloudy
Conditions



Rainfall
0.00 (mm) - 0.00 (in)
Pressure
1017.92 (hPa) - 30.06 (inHG)
Visibility

10.0 (km) - 6.2 (miles)
   Temperature
24  °C
75°F
22  °C
Dewpoint
89  %
 Humidity
   Wind Speed
13  km/h
7  kts
8  mph
3.6  m/s
   Wind Direction
 340°
North North
West
   Airport Data
LTBA
Location Atatürk International 10 km (6.22 mi)
Metar :LTBA 232220Z 34007KT 9999 FEW015 24/22 Q1018 NOSIG RMK RWY17L 35006KT RWY05 35006KT RWY23 36006KT 320V020
Sat 24th August 01:20 am
   Raw Metar Info
Raw METAR is the most common format in the world for the transmission of observational weather data. It is highly standardized through the International Civil Aviation Organization (ICAO), which allows it to be understood throughout most of the world.
   API Info
Data Provided by
https://www.checkwx.com/weather/
   © Info
CSS/SVG/PHP scripts were developed by weather34.com for use in the weather34 template © 2015-2019

Guide Info provided by Metar-Wikipedia